Location: Caltech
(34.1382°N, 118.1253°W)
Time: 17:18:13
(UTC-08:00)

Cosmos 1833 - Visible Passes

Search period start: 27 November 2014 00:00
Search period end: 07 December 2014 00:00
Orbit: 840 x 859 km, 70.9° (Epoch: 27 November)

Date Brightness Start Highest point End Pass type
(mag) Time Alt. Az. Time Alt. Az. Time Alt. Az.
27 Nov 5.9 04:30:49 10° N 04:35:49 30° ENE 04:40:45 10° ESE visible
27 Nov 5.9 17:38:51 10° ESE 17:41:02 12° E 17:41:02 12° E visible
27 Nov 4.9 19:18:53 10° SSW 19:23:05 50° SW 19:23:05 50° SW visible
28 Nov 5.9 04:18:32 12° N 04:23:07 30° ENE 04:28:03 10° ESE visible
28 Nov 5.0 06:02:14 10° NW 06:07:16 32° WSW 06:12:15 10° SSW visible
28 Nov 5.9 17:26:13 10° ESE 17:28:23 12° E 17:29:45 11° E visible
28 Nov 4.3 19:06:11 10° SSW 19:11:48 71° WNW 19:11:48 71° WNW visible
29 Nov 5.9 04:07:00 17° NNE 04:10:25 29° ENE 04:15:20 10° ESE visible
29 Nov 4.9 05:49:32 10° NW 05:54:35 33° WSW 05:59:35 10° SSW visible
29 Nov 6.0 17:13:36 10° ESE 17:15:42 12° E 17:17:48 10° ENE visible
29 Nov 4.3 18:53:30 10° SSW 18:59:10 72° WNW 19:00:26 53° N visible
30 Nov 5.9 03:55:33 23° NNE 03:57:44 29° ENE 04:02:37 10° ESE visible
30 Nov 4.9 05:37:36 14° NW 05:41:53 33° WSW 05:46:54 10° SSW visible
30 Nov 4.3 18:40:48 10° SSW 18:46:28 73° WNW 18:49:01 34° N visible
01 Dec 5.8 03:44:11 28° NE 03:45:02 29° ENE 03:49:55 10° ESE visible
01 Dec 4.9 05:26:14 21° NW 05:29:12 33° WSW 05:34:13 10° SSW visible
01 Dec 4.4 18:28:06 10° SSW 18:33:46 73° WNW 18:37:30 23° NNE visible
02 Dec 5.9 03:32:52 28° ENE 03:32:52 28° ENE 03:37:12 10° ESE visible
02 Dec 4.8 05:14:55 29° WNW 05:16:30 34° WSW 05:21:33 10° SSW visible
02 Dec 4.4 18:15:24 10° SSW 18:21:05 74° WNW 18:25:54 15° NNE visible
03 Dec 6.3 03:21:36 23° E 03:21:36 23° E 03:24:29 10° ESE visible
03 Dec 4.8 05:03:39 34° W 05:03:49 34° WSW 05:08:52 10° SSW visible
03 Dec 4.4 18:02:42 10° SSW 18:08:23 75° WNW 18:14:08 10° NNE visible
04 Dec 6.7 03:10:20 16° ESE 03:10:20 16° ESE 03:11:46 10° ESE visible
04 Dec 5.1 04:52:24 31° SW 04:52:24 31° SW 04:56:11 10° SSW visible
04 Dec 4.4 17:50:00 10° SSW 17:55:41 75° WNW 18:01:26 10° NNE visible
05 Dec 5.6 04:41:08 23° SSW 04:41:08 23° SSW 04:43:30 10° SSW visible
05 Dec 4.4 17:37:18 10° SSW 17:43:00 76° WNW 17:48:45 10° NNE visible
06 Dec 6.2 04:29:51 15° SSW 04:29:51 15° SSW 04:30:50 10° SSW visible
06 Dec 4.4 17:24:36 10° SSW 17:30:18 77° WNW 17:36:03 10° NNE visible
